Location: ??????????
(44.2167°N, 135.5333°E)
Time: 15:14:01
(UTC+00:00)

ATLAS 2AS CENTAUR R/B - Pass Details

Date: 15 June 2025
Orbit: 1040 x 1170 km, 63.7° (Epoch: 15 July)

Event Time Altitude Azimuth Distance (km) Brightness Sun altitude
Exits shadow 15:31:28 29° 229° (SW) 1,923 3.6 -22.0°
Maximum altitude 15:35:24 74° 309° (NW) 1,151 2.9 -21.9°
Drops below altitude 10° 15:42:22 10° 34° (NE) 2,926 5.9 -21.7°
Sets 15:45:00 0° 37° (NE) 3,868 6.7 -21.6°
